Tracking 17265 objects as of 3-September-2015
HD Live streaming from Space Station

Track Soyuz TMA-18M
and Space Station

BREEZE-M DEB

Track BREEZE-M DEB now!
10-day predictions
BREEZE-M DEB is classified as:


NORAD ID: 36958
Int'l Code: 2006-006CQ
Perigee: 383.4 km
Apogee: 13,342.1 km
Inclination: 51.8 °
Period: 252.5 minutes
Semi major axis: 13233 km
RCS: 0.0224 m2 (small)
Launch date: February 28, 2006
Source: Commonwealth of Independent States (former USSR) (CIS)

Note: This is SATELLITE DEBRIS
Your satellite tracking list
Your tracking list is empty





NASA's NSSDC Master Catalog

Two Line Element Set (TLE):
1 36958U 06006CQ  15243.40808620  .00015308  00000-0  65895-2 0  9998
2 36958 051.7778 029.2660 4896058 127.9635 352.6903 05.70265267142102

Source of the keplerian elements: AFSPC

N2YO: 542